Date String (YYYY-MM-DD hh:mm:ss) UTC,Instrument flags,absolute air pressure of the measurement (hPa),sample flow rate (lpm),inlet stack bypass flow (lpm),air temperature of the measurement (°C),ambient temperature measured by the external sensor (°C),aerosol sample conditioner tube jacket temperature (°C),OPC LED temperature (°C),internal box temperature (°C),relative humidity of the measurement (%),span deviation,mass concentration of particles derived from Lorenz-Mie calculation of OPC scattering (μg/m³),mass concentration of particles derived from Lorenz-Mie calculation of OPC scattering (μg/m³),mass concentration of particles derived from Lorenz-Mie calculation of OPC scattering (μg/m³)
DateTimeUTC,F1_M11,P_M11,Q1_M11,Q2_M11,T1_M11,T2_M11,T3_M11,T4_M11,T5_M11,U1_M11,ZSPAN_M11,X2_M11,X0_M11,X1_M11
2023-10-01 08:00:00,SystemResetWarning,0825.9,4.99,000.00,028.3,026.9,000.0,036.8,030.1,18.9,0000.0,0003.51,0008.85,0002.94
2023-10-01 08:01:00,SystemResetWarning,0825.9,5.00,000.00,028.3,027.0,000.0,036.8,030.1,18.8,0000.0,0003.50,0008.83,0002.97
2023-10-01 08:02:00,SystemResetWarning,0825.8,4.99,000.00,028.4,027.0,000.0,036.8,030.1,18.7,0000.0,0003.49,0008.80,0002.98
2023-10-01 08:03:00,SystemResetWarning,0825.9,4.99,000.00,028.4,027.1,000.0,036.8,030.2,18.7,0000.0,0003.53,0008.48,0003.01
2023-10-01 08:04:00,SystemResetWarning,0825.9,5.00,000.00,028.4,027.1,000.0,036.8,030.2,18.6,0000.0,0003.56,0008.41,0003.03
2023-10-01 08:05:00,SystemResetWarning,0825.9,5.00,000.00,028.4,027.2,000.0,036.9,030.2,18.6,0000.0,0003.56,0008.13,0003.05
2023-10-01 08:06:00,SystemResetWarning,0825.9,5.01,000.00,028.5,027.2,000.0,036.9,030.2,18.5,0000.0,0003.59,0007.91,0003.08
2023-10-01 08:07:00,SystemResetWarning,0825.9,5.01,000.00,028.5,027.3,000.0,036.9,030.3,18.5,0000.0,0003.62,0007.99,0003.09
2023-10-01 08:08:00,SystemResetWarning,0825.9,5.00,000.00,028.5,027.3,000.0,036.9,030.3,18.4,0000.0,0003.59,0007.23,0003.09
2023-10-01 08:09:00,SystemResetWarning,0825.9,5.00,000.00,028.5,027.3,000.0,036.9,030.3,18.4,0000.0,0003.58,0006.88,0003.09
2023-10-01 08:10:00,SystemResetWarning,0825.9,5.00,000.00,028.6,027.4,000.0,036.9,030.3,18.4,0000.0,0003.57,0006.89,0003.10
2023-10-01 08:11:00,SystemResetWarning,0825.9,4.99,000.00,028.6,027.4,000.0,036.9,030.3,18.4,0000.0,0003.56,0006.77,0003.11
2023-10-01 08:12:00,SystemResetWarning,0825.8,5.00,000.00,028.6,027.4,000.0,037.0,030.3,18.4,0000.0,0003.58,0006.75,0003.11
2023-10-01 08:13:00,SystemResetWarning,0825.9,5.01,000.00,028.6,027.4,000.0,037.0,030.4,18.3,0000.0,0003.65,0007.09,0003.12
2023-10-01 08:14:00,SystemResetWarning,0825.9,5.01,000.00,028.6,027.4,000.0,037.0,030.4,18.3,0000.0,0003.66,0007.17,0003.12
2023-10-01 08:15:00,SystemResetWarning,0825.9,5.00,000.00,028.7,027.4,000.0,037.0,030.4,18.3,0000.0,0003.64,0007.01,0003.12
2023-10-01 08:16:00,SystemResetWarning,0825.9,4.99,000.00,028.7,027.5,000.0,037.0,030.4,18.2,0000.0,0003.64,0006.84,0003.14
2023-10-01 08:17:00,SystemResetWarning,0826.0,4.98,000.00,028.7,026.5,000.0,037.0,030.4,18.2,0000.0,0003.64,0007.08,0003.14
2023-10-01 08:18:00,SystemResetWarning,0826.0,5.01,000.00,028.6,024.7,000.0,037.0,030.2,18.3,0000.0,0003.63,0007.74,0003.16
2023-10-01 08:19:00,SystemResetWarning,0826.0,5.01,000.00,028.5,024.4,000.0,036.9,030.0,18.3,0000.0,0003.64,0007.74,0003.17
2023-10-01 08:20:00,SystemResetWarning,0826.0,5.01,000.00,028.4,024.6,000.0,036.9,029.9,18.4,0000.0,0003.69,0007.77,0003.18
2023-10-01 08:21:00,SystemResetWarning,0826.0,4.99,000.00,028.3,025.0,000.0,036.9,029.8,18.6,0000.0,0003.71,0007.83,0003.19
2023-10-01 08:22:00,SystemResetWarning,0826.0,5.00,000.00,028.3,025.3,000.0,036.9,029.9,18.6,0000.0,0003.72,0007.57,0003.19
2023-10-01 08:23:00,SystemResetWarning,0826.0,5.00,000.00,028.3,025.7,000.0,036.9,029.9,18.6,0000.0,0003.73,0007.58,0003.20
2023-10-01 08:24:00,SystemResetWarning,0826.0,5.00,000.00,028.3,026.0,000.0,036.9,029.9,18.6,0000.0,0003.73,0007.53,0003.20
2023-10-01 08:25:00,SystemResetWarning,0826.1,4.99,000.00,028.3,026.2,000.0,036.9,030.0,18.6,0000.0,0003.67,0007.22,0003.21
2023-10-01 08:26:00,SystemResetWarning,0826.2,5.00,000.00,028.3,026.4,000.0,036.9,030.0,18.6,0000.0,0003.68,0007.43,0003.21
2023-10-01 08:27:00,SystemResetWarning,0826.2,5.00,000.00,028.3,026.6,000.0,036.9,030.0,18.6,0000.0,0003.72,0008.34,0003.21
2023-10-01 08:28:00,SystemResetWarning,0826.2,5.00,000.00,028.3,026.7,000.0,036.8,030.0,18.7,0000.0,0003.73,0008.36,0003.21
2023-10-01 08:29:00,SystemResetWarning,0826.2,5.01,000.00,028.3,026.8,000.0,036.8,030.1,18.7,0000.0,0003.78,0008.37,0003.21
2023-10-01 08:30:00,SystemResetWarning,0826.2,5.00,000.00,028.3,026.9,000.0,036.8,030.1,18.5,0000.0,0003.80,0008.28,0003.21
2023-10-01 08:31:00,SystemResetWarning,0826.2,5.00,000.00,028.4,026.9,000.0,036.8,030.1,18.5,0000.0,0003.80,0008.32,0003.21
2023-10-01 08:32:00,SystemResetWarning,0826.2,5.00,000.00,028.4,027.0,000.0,036.8,030.1,18.5,0000.0,0003.77,0008.30,0003.20
2023-10-01 08:33:00,SystemResetWarning,0826.2,5.00,000.00,028.4,027.1,000.0,036.8,030.2,18.4,0000.0,0003.76,0008.40,0003.20
2023-10-01 08:34:00,SystemResetWarning,0826.2,4.99,000.00,028.4,027.1,000.0,036.8,030.2,18.3,0000.0,0003.76,0008.37,0003.20
2023-10-01 08:35:00,SystemResetWarning,0826.3,4.99,000.00,028.4,027.1,000.0,036.8,030.2,18.3,0000.0,0003.74,0008.67,0003.20
2023-10-01 08:36:00,SystemResetWarning,0826.3,4.99,000.00,028.4,027.2,000.0,036.9,030.2,18.3,0000.0,0003.78,0009.06,0003.20
2023-10-01 08:37:00,SystemResetWarning,0826.3,5.00,000.00,028.5,027.2,000.0,036.9,030.2,18.3,0000.0,0003.80,0008.92,0003.21
2023-10-01 08:38:00,SystemResetWarning,0826.3,5.01,000.00,028.5,027.3,000.0,036.9,030.3,18.2,0000.0,0003.79,0008.69,0003.21
2023-10-01 08:39:00,SystemResetWarning,0826.2,5.01,000.00,028.5,027.3,000.0,036.9,030.3,18.2,0000.0,0003.76,0008.73,0003.20
2023-10-01 08:40:00,SystemResetWarning,0826.2,5.00,000.00,028.5,027.4,000.0,036.9,030.3,18.2,0000.0,0003.73,0008.79,0003.18
2023-10-01 08:41:00,SystemResetWarning,0826.2,5.00,000.00,028.6,027.4,000.0,036.9,030.3,18.2,0000.0,0003.72,0009.28,0003.18
2023-10-01 08:42:00,SystemResetWarning,0826.2,5.00,000.00,028.6,027.4,000.0,037.0,030.3,18.1,0000.0,0003.71,0009.30,0003.17
2023-10-01 08:43:00,SystemResetWarning,0826.2,4.99,000.00,028.6,027.4,000.0,037.0,030.4,18.1,0000.0,0003.71,0009.77,0003.17
2023-10-01 08:44:00,SystemResetWarning,0826.2,4.99,000.00,028.6,027.5,000.0,037.0,030.4,18.1,0000.0,0003.71,0010.37,0003.17
2023-10-01 08:45:00,SystemResetWarning,0826.2,4.99,000.00,028.7,027.5,000.0,037.0,030.4,18.1,0000.0,0003.68,0010.38,0003.16
2023-10-01 08:46:00,SystemResetWarning,0826.2,5.00,000.00,028.7,027.4,000.0,037.0,030.4,18.1,0000.0,0003.69,0010.87,0003.15
2023-10-01 08:47:00,SystemResetWarning,0826.2,5.00,000.00,028.7,026.2,000.0,037.0,030.3,18.1,0000.0,0003.62,0010.80,0003.13
2023-10-01 08:48:00,SystemResetWarning,0826.2,5.00,000.00,028.6,024.6,000.0,036.9,030.1,18.1,0000.0,0003.60,0010.74,0003.12
2023-10-01 08:49:00,SystemResetWarning,0826.2,5.02,000.00,028.5,024.4,000.0,036.9,030.0,18.2,0000.0,0003.57,0010.27,0003.11
2023-10-01 08:50:00,SystemResetWarning,0826.1,4.99,000.00,028.4,024.6,000.0,036.9,029.8,18.3,0000.0,0003.56,0010.05,0003.11
2023-10-01 08:51:00,SystemResetWarning,0826.1,4.99,000.00,028.3,024.9,000.0,036.9,029.8,18.4,0000.0,0003.57,0009.77,0003.11
2023-10-01 08:52:00,SystemResetWarning,0826.0,5.00,000.00,028.3,025.3,000.0,036.9,029.8,18.5,0000.0,0003.58,0009.21,0003.11
2023-10-01 08:53:00,SystemResetWarning,0826.0,5.01,000.00,028.2,025.6,000.0,036.8,029.8,18.5,0000.0,0003.57,0009.90,0003.10
2023-10-01 08:54:00,SystemResetWarning,0826.0,5.00,000.00,028.2,025.9,000.0,036.8,029.8,18.5,0000.0,0003.58,0009.49,0003.10
2023-10-01 08:55:00,SystemResetWarning,0826.0,5.00,000.00,028.2,026.1,000.0,036.8,029.9,18.6,0000.0,0003.59,0008.96,0003.09
2023-10-01 08:56:00,SystemResetWarning,0826.1,5.00,000.00,028.2,026.3,000.0,036.8,029.9,18.7,0000.0,0003.57,0009.06,0003.09
2023-10-01 08:57:00,SystemResetWarning,0826.0,5.00,000.00,028.2,026.5,000.0,036.8,029.9,18.9,0000.0,0003.57,0008.43,0003.10
2023-10-01 08:58:00,SystemResetWarning,0826.0,5.00,000.00,028.2,026.6,000.0,036.8,030.0,18.7,0000.0,0003.61,0008.06,0003.10
2023-10-01 08:59:00,SystemResetWarning,0826.0,5.00,000.00,028.2,026.7,000.0,036.8,030.0,18.6,0000.0,0003.65,0008.18,0003.11
